Content
SEND FEEDBACK

Daily
Averages
Monthly
Summary
United States of America

TIMBERLAKE, VIRGINIA


Home > North America > United States > Virginia
Elevation: 938 feet     Latitude: 37 19N     Longitude: 079 12W

WEATHER
 
SELECT A DAY
Number of Records: 211,594;   Date Range: 1/1/95 - 8/12/14
 
SHARE

PRINT THIS DATA

[ ← Previous Day ]
WEATHER ALMANAC - FEBRUARY 1, 2013
[ Next Day → ]
[ °C ]   °F
Weather ElementAverageHighLow
Temperature27 °F33.1 °F (3:54 am)17.1 °F (11:54 pm)
Dewpoint10.9 °F28.4 °F (5:14 am)1.9 °F (11:54 am)
Humidity53.2 %87 % (5:14 am)33 % (12:54 pm)
Barometer30.11 in30.40 in (10:54 pm)29.80 in (3:54 am)
Wind Speed8.6 mph18.4 mph (5:54 am)
Wind Gust31.1 mph (5:54 am)
Weather ElementAverage
Visibility8.6 mi
Wind DirectionSW (223.6 °)

Weather ElementTotal
Precipitation---
Heating Degree Days39.9 (Base 65)
Averaged from 28 records on February 1, 2013
WEATHER CONDITIONS BREAKOUT
WIND DIRECTION BREAKOUT
WEATHER BY HOUR - FEBRUARY 1, 2013
[ °C ]   °F
Local TimeTemperatureDewpointHumidityBarometerVisibilityWind DirectionWind SpeedGust SpeedPrecipitationEventsConditions
1:54 AM30.0 °F19.9 °F66 %29.87 in10.0 miSW (220°)6.9 mphClear
2:54 AM30.9 °F21.0 °F67 %29.82 in10.0 miSSW (210°)10.4 mphMostly Cloudy
3:54 AM33.1 °F21.0 °F61 %29.80 in10.0 miSSW (200°)11.5 mphOvercast
4:54 AM30.9 °F26.1 °F82 %29.84 in2.5 miVariable4.6 mph0.00 inSnowLight Snow
5:02 AM30.2 °F26.6 °F86 %29.83 in9.0 miVariable3.5 mph0.00 inSnowLight Snow
5:09 AM32.0 °F26.6 °F80 %29.85 in3.0 miWest (260°)11.5 mph19.6 mph0.00 inSnowLight Snow
5:11 AM32.0 °F26.6 °F80 %29.85 in2.5 miWest (280°)11.5 mph19.6 mph0.00 inSnowLight Snow
5:14 AM32.0 °F28.4 °F87 %29.85 in1.8 miWNW (290°)8.1 mph19.6 mph0.00 inSnowLight Snow
5:20 AM32.0 °F28.4 °F87 %29.86 in3.0 miWNW (290°)8.1 mph18.4 mph0.00 inSnowLight Snow
5:54 AM30.0 °F14.0 °F51 %29.94 in10.0 miWNW (300°)18.4 mph31.1 mph0.00 inScattered Clouds
6:54 AM28.0 °F12.0 °F51 %29.99 in10.0 miWNW (300°)9.2 mph26.5 mphScattered Clouds
7:54 AM26.1 °F3.0 °F37 %30.07 in10.0 miWNW (290°)13.8 mph28.8 mphClear
8:54 AM25.0 °F7.0 °F46 %30.14 in10.0 miWNW (290°)13.8 mph27.6 mphMostly Cloudy
9:54 AM24.1 °F6.1 °F46 %30.18 in10.0 miVariable6.9 mph17.3 mphScattered Clouds
10:54 AM25.0 °F3.0 °F39 %30.21 in10.0 miWNW (300°)12.7 mph23.0 mphClear
11:54 AM26.1 °F1.9 °F35 %30.22 in10.0 miWest (280°)11.5 mph25.3 mphClear
12:54 PM28.0 °F1.9 °F33 %30.23 in10.0 miWNW (290°)10.4 mph23.0 mphClear
1:54 PM28.0 °F3.0 °F34 %30.22 in10.0 miWest (270°)9.2 mph21.9 mphClear
2:54 PM28.9 °F3.0 °F33 %30.23 in10.0 miWNW (290°)10.4 mph21.9 mphClear
3:54 PM28.9 °F3.0 °F33 %30.25 in10.0 miWest (280°)9.2 mph19.6 mphClear
4:54 PM27.0 °F1.9 °F34 %30.27 in10.0 miWest (280°)12.7 mph18.4 mphClear
5:54 PM25.0 °F1.9 °F37 %30.30 in10.0 miWest (270°)8.1 mphClear
6:54 PM21.9 °F3.0 °F44 %30.33 in10.0 miWest (270°)3.5 mphClear
7:54 PM21.9 °F3.0 °F44 %30.35 in10.0 miCalmClear
8:54 PM21.9 °F1.9 °F42 %30.37 in10.0 miWNW (300°)6.9 mphClear
9:54 PM19.0 °F3.0 °F50 %30.39 in10.0 miWest (270°)3.5 mphClear
10:54 PM19.9 °F3.0 °F48 %30.40 in10.0 miSW (230°)3.5 mphClear
11:54 PM17.1 °F3.9 °F56 %30.40 in10.0 miCalmClear
Hourly data recorded from KLYH, located miles away from Timberlake, Virginia







STORIES FROM OUR PARTNERS